Location: Ethel Rock
(53.4667°N, 4.5667°W)
Time: 05:03:31
(UTC+00:00)

CZ-2C R/B - Pass Details

Date: 24 October 2020
Orbit: 502 x 566 km, 97.7° (Epoch: 25 November)

Event Time Altitude Azimuth Distance (km) Brightness Sun altitude
Rises 04:13:05 0° 13° (NNE) 2,774 6.8 -25.7°
Reaches altitude 10° 04:15:14 10° 12° (NNE) 1,876 5.8 -25.4°
Enters shadow 04:17:58 41° 5° (N) 829 3.8 -25.0°
